| time (UTC) | temp C | wind direction | speed KPH | gust KPH | rain 1hr cm | rain 24hr cm | rain mn cm | humidity % | barometer mb |
| 20260831072528 | 22 | 315 | 0.0 | 3.2 | 0.00 | 0.00 | 0.00 | 68 | 1015.5 |
| 20260831072026 | 22 | 316 | 1.6 | 3.2 | 0.00 | 0.00 | 0.00 | 67 | 1015.6 |
| 20260831071525 | 22 | 315 | 0.0 | 1.6 | 0.00 | 0.00 | 0.00 | 68 | 1015.4 |
| 20260831071028 | 22 | 315 | 0.0 | 0.0 | 0.00 | 0.00 | 0.00 | 67 | 1015.4 |
| 20260831070526 | 21 | 315 | 0.0 | 0.0 | 0.00 | 0.00 | 0.00 | 70 | 1015.5 |
| 20260831065514 | 21 | 315 | 0.0 | 0.0 | 0.00 | 0.00 | 0.00 | 73 | 1015.5 |
| 20260831065014 | 21 | 315 | 0.0 | 0.0 | 0.00 | 0.00 | 0.00 | 73 | 1015.4 |
| 20260831064515 | 20 | 315 | 0.0 | 0.0 | 0.00 | 0.00 | 0.00 | 75 | 1015.4 |
| 20260831064005 | 20 | 315 | 0.0 | 1.6 | 0.00 | 0.00 | 0.00 | 74 | 1015.4 |
| 20260831063003 | 20 | 315 | 0.0 | 0.0 | 0.00 | 0.00 | 0.00 | 76 | 1015.7 |
| 20260831062453 | 19 | 315 | 0.0 | 0.0 | 0.00 | 0.00 | 0.00 | 77 | 1015.4 |
| 20260831061951 | 18 | 315 | 0.0 | 1.6 | 0.00 | 0.00 | 0.00 | 79 | 1015.4 |
| 20260831055939 | 18 | 315 | 0.0 | 0.0 | 0.00 | 0.00 | 0.00 | 83 | 1015.3 |
| 20260831055439 | 17 | 315 | 0.0 | 0.0 | 0.00 | 0.00 | 0.00 | 86 | 1015.2 |
| 20260831054937 | 17 | 315 | 0.0 | 0.0 | 0.00 | 0.00 | 0.00 | 85 | 1015.4 |
| 20260831054439 | 16 | 315 | 0.0 | 0.0 | 0.00 | 0.00 | 0.00 | 89 | 1015.4 |
| 20260831053937 | 16 | 315 | 0.0 | 0.0 | 0.00 | 0.00 | 0.00 | 90 | 1015.2 |
| 20260831053442 | 16 | 315 | 0.0 | 0.0 | 0.00 | 0.00 | 0.00 | 91 | 1015.2 |
| 20260831052943 | 16 | 315 | 0.0 | 0.0 | 0.00 | 0.00 | 0.00 | 91 | 1015.2 |
| 20260831051441 | 15 | 315 | 0.0 | 0.0 | 0.00 | 0.00 | 0.00 | 90 | 1015.1 |
| 20260831045426 | 15 | 316 | 0.0 | 0.0 | 0.00 | 0.00 | 0.00 | 90 | 1015.0 |
| 20260831044426 | 15 | 316 | 0.0 | 0.0 | 0.00 | 0.00 | 0.00 | 90 | 1015.0 |
| 20260831043926 | 15 | 316 | 0.0 | 0.0 | 0.00 | 0.00 | 0.00 | 90 | 1015.0 |
| 20260831043427 | 15 | 316 | 0.0 | 0.0 | 0.00 | 0.00 | 0.00 | 90 | 1015.1 |
| 20260831042929 | 15 | 316 | 0.0 | 0.0 | 0.00 | 0.00 | 0.00 | 90 | 1014.8 |
| 20260831042401 | 15 | 316 | 0.0 | 0.0 | 0.00 | 0.00 | 0.00 | 89 | 1014.7 |
| 20260831041902 | 15 | 316 | 0.0 | 0.0 | 0.00 | 0.00 | 0.00 | 89 | 1014.8 |
| 20260831041407 | 15 | 316 | 0.0 | 0.0 | 0.00 | 0.00 | 0.00 | 89 | 1014.8 |
| 20260831040402 | 15 | 316 | 0.0 | 0.0 | 0.00 | 0.00 | 0.00 | 89 | 1014.8 |
| 20260831035905 | 15 | 316 | 0.0 | 0.0 | 0.00 | 0.00 | 0.00 | 88 | 1014.7 |
| 20260831035402 | 15 | 316 | 0.0 | 0.0 | 0.00 | 0.00 | 0.00 | 89 | 1014.6 |
| 20260831034350 | 15 | 316 | 0.0 | 0.0 | 0.00 | 0.00 | 0.00 | 88 | 1014.6 |
| 20260831033854 | 15 | 316 | 0.0 | 0.0 | 0.00 | 0.00 | 0.00 | 88 | 1014.6 |
| 20260831032344 | 16 | 316 | 0.0 | 0.0 | 0.00 | 0.00 | 0.00 | 87 | 1014.5 |
| 20260831031837 | 16 | 316 | 0.0 | 0.0 | 0.00 | 0.00 | 0.00 | 87 | 1014.3 |
| 20260831031338 | 16 | 316 | 0.0 | 0.0 | 0.00 | 0.00 | 0.00 | 87 | 1014.8 |
| 20260831030841 | 16 | 316 | 0.0 | 0.0 | 0.00 | 0.00 | 0.00 | 87 | 1014.6 |
| 20260831030339 | 16 | 316 | 0.0 | 0.0 | 0.00 | 0.00 | 0.00 | 87 | 1014.8 |
| 20260831025838 | 16 | 316 | 0.0 | 0.0 | 0.00 | 0.00 | 0.00 | 86 | 1014.7 |
| 20260831025339 | 16 | 316 | 0.0 | 0.0 | 0.00 | 0.00 | 0.00 | 86 | 1014.7 |
| 20260831024844 | 16 | 316 | 0.0 | 0.0 | 0.00 | 0.00 | 0.00 | 86 | 1014.8 |
| 20260831023338 | 16 | 315 | 0.0 | 0.0 | 0.00 | 0.00 | 0.00 | 85 | 1014.6 |
| 20260831022849 | 16 | 316 | 0.0 | 0.0 | 0.00 | 0.00 | 0.00 | 85 | 1014.8 |
| 20260831022343 | 16 | 315 | 0.0 | 0.0 | 0.00 | 0.00 | 0.00 | 85 | 1014.7 |
| 20260831021838 | 16 | 316 | 0.0 | 0.0 | 0.00 | 0.00 | 0.00 | 85 | 1014.8 |
| 20260831021338 | 16 | 316 | 0.0 | 0.0 | 0.00 | 0.00 | 0.00 | 85 | 1014.8 |
| 20260831020337 | 16 | 316 | 0.0 | 0.0 | 0.00 | 0.00 | 0.00 | 85 | 1014.9 |
| 20260831015343 | 16 | 316 | 0.0 | 0.0 | 0.00 | 0.00 | 0.00 | 84 | 1014.8 |
| 20260831014837 | 16 | 316 | 0.0 | 0.0 | 0.00 | 0.00 | 0.00 | 84 | 1014.7 |
| 20260831014338 | 16 | 315 | 0.0 | 0.0 | 0.00 | 0.00 | 0.00 | 84 | 1014.7 |
| 20260831013840 | 16 | 315 | 0.0 | 0.0 | 0.00 | 0.00 | 0.00 | 83 | 1015.0 |
| 20260831013341 | 16 | 315 | 0.0 | 0.0 | 0.00 | 0.00 | 0.00 | 83 | 1015.0 |
| 20260831012837 | 16 | 315 | 0.0 | 0.0 | 0.00 | 0.00 | 0.00 | 82 | 1014.8 |
| 20260831012341 | 17 | 315 | 0.0 | 0.0 | 0.00 | 0.00 | 0.00 | 82 | 1014.9 |
| 20260831011838 | 17 | 315 | 0.0 | 0.0 | 0.00 | 0.00 | 0.00 | 81 | 1014.7 |
| 20260831010840 | 17 | 316 | 0.0 | 0.0 | 0.00 | 0.00 | 0.00 | 81 | 1014.6 |
| 20260831010341 | 17 | 315 | 0.0 | 0.0 | 0.00 | 0.00 | 0.00 | 80 | 1014.7 |
| 20260831005341 | 17 | 315 | 0.0 | 1.6 | 0.00 | 0.00 | 0.00 | 79 | 1014.8 |
| 20260831004839 | 17 | 315 | 0.0 | 1.6 | 0.00 | 0.00 | 0.00 | 79 | 1014.6 |
| 20260831004347 | 18 | 315 | 0.0 | 0.0 | 0.00 | 0.00 | 0.00 | 78 | 1014.6 |
| 20260831003833 | 18 | 315 | 0.0 | 0.0 | 0.00 | 0.00 | 0.00 | 77 | 1014.8 |
| 20260831003329 | 18 | 315 | 0.0 | 0.0 | 0.00 | 0.00 | 0.00 | 77 | 1014.6 |
| 20260831002832 | 18 | 315 | 0.0 | 0.0 | 0.00 | 0.00 | 0.00 | 76 | 1014.9 |
| 20260831001816 | 18 | 315 | 0.0 | 1.6 | 0.00 | 0.00 | 0.00 | 74 | 1014.6 |
| 20260831001318 | 18 | 315 | 0.0 | 1.6 | 0.00 | 0.00 | 0.00 | 73 | 1014.5 |
| 20260831000805 | 19 | 315 | 0.0 | 1.6 | 0.00 | 0.00 | 0.00 | 73 | 1014.7 |
| 20260831000303 | 19 | 315 | 0.0 | 1.6 | 0.00 | 0.00 | 0.00 | 72 | 1014.7 |
| 20260830235803 | 19 | 317 | 0.0 | 1.6 | 0.00 | 0.00 | 0.00 | 72 | 1014.6 |
| 20260830234750 | 19 | 317 | 0.0 | 3.2 | 0.00 | 0.00 | 0.00 | 70 | 1014.6 |
| 20260830234253 | 20 | 317 | 0.0 | 1.6 | 0.00 | 0.00 | 0.00 | 69 | 1014.8 |
| 20260830233240 | 20 | 312 | 0.0 | 3.2 | 0.00 | 0.00 | 0.00 | 68 | 1014.7 |
| 20260830232738 | 20 | 320 | 0.0 | 3.2 | 0.00 | 0.00 | 0.00 | 68 | 1014.7 |
| 20260830230740 | 20 | 326 | 0.0 | 3.2 | 0.00 | 0.00 | 0.00 | 66 | 1014.8 |
| 20260830230239 | 20 | 358 | 0.0 | 3.2 | 0.00 | 0.00 | 0.00 | 67 | 1014.9 |
| 20260830225238 | 20 | 352 | 0.0 | 4.8 | 0.00 | 0.00 | 0.00 | 66 | 1014.7 |
| 20260830224241 | 20 | 300 | 0.0 | 4.8 | 0.00 | 0.00 | 0.00 | 66 | 1014.8 |
| 20260830222738 | 20 | 308 | 0.0 | 3.2 | 0.00 | 0.00 | 0.00 | 65 | 1014.6 |
| 20260830222238 | 20 | 324 | 0.0 | 1.6 | 0.00 | 0.00 | 0.00 | 65 | 1014.5 |
| 20260830221756 | 21 | 330 | 0.0 | 0.0 | 0.00 | 0.00 | 0.00 | 65 | 1014.6 |
| 20260830221242 | 21 | 330 | 0.0 | 0.0 | 0.00 | 0.00 | 0.00 | 65 | 1014.6 |
| 20260830220740 | 21 | 345 | 0.0 | 1.6 | 0.00 | 0.00 | 0.00 | 64 | 1014.4 |
| 20260830220231 | 21 | 338 | 0.0 | 3.2 | 0.00 | 0.00 | 0.00 | 63 | 1014.3 |
| 20260830215725 | 21 | 319 | 0.0 | 3.2 | 0.00 | 0.00 | 0.00 | 63 | 1014.5 |
| 20260830215228 | 21 | 339 | 0.0 | 3.2 | 0.00 | 0.00 | 0.00 | 63 | 1014.5 |
| 20260830214728 | 21 | 307 | 0.0 | 3.2 | 0.00 | 0.00 | 0.00 | 63 | 1014.5 |
| 20260830214226 | 21 | 328 | 0.0 | 1.6 | 0.00 | 0.00 | 0.00 | 63 | 1014.3 |
| 20260830213728 | 21 | 320 | 0.0 | 1.6 | 0.00 | 0.00 | 0.00 | 62 | 1014.3 |
| 20260830213225 | 22 | 312 | 1.6 | 3.2 | 0.00 | 0.00 | 0.00 | 60 | 1014.3 |
| 20260830212746 | 22 | 312 | 0.0 | 3.2 | 0.00 | 0.00 | 0.00 | 59 | 1014.4 |
| 20260830212231 | 22 | 306 | 0.0 | 4.8 | 0.00 | 0.00 | 0.00 | 58 | 1014.2 |
| 20260830210728 | 22 | 308 | 1.6 | 6.4 | 0.00 | 0.00 | 0.00 | 59 | 1013.9 |
| 20260830210226 | 22 | 310 | 3.2 | 3.2 | 0.00 | 0.00 | 0.00 | 60 | 1014.1 |
| 20260830205725 | 22 | 315 | 0.0 | 4.8 | 0.00 | 0.00 | 0.00 | 59 | 1013.7 |
| 20260830205228 | 21 | 315 | 1.6 | 6.4 | 0.00 | 0.00 | 0.00 | 59 | 1014.1 |
| 20260830204731 | 21 | 308 | 1.6 | 6.4 | 0.00 | 0.00 | 0.00 | 60 | 1013.8 |
| 20260830204229 | 20 | 309 | 0.0 | 3.2 | 0.00 | 0.00 | 0.00 | 61 | 1013.9 |
| 20260830203729 | 20 | 345 | 0.0 | 0.0 | 0.00 | 0.00 | 0.00 | 61 | 1014.0 |
| 20260830202732 | 21 | 344 | 0.0 | 1.6 | 0.00 | 0.00 | 0.00 | 60 | 1013.9 |
| 20260830202228 | 20 | 344 | 1.6 | 1.6 | 0.00 | 0.00 | 0.00 | 60 | 1014.1 |
| 20260830201730 | 21 | 352 | 0.0 | 0.0 | 0.00 | 0.00 | 0.00 | 60 | 1014.1 |
| 20260830201228 | 21 | 352 | 0.0 | 1.6 | 0.00 | 0.00 | 0.00 | 60 | 1014.0 |
| 20260830200714 | 21 | 351 | 0.0 | 1.6 | 0.00 | 0.00 | 0.00 | 59 | 1013.9 |
| 20260830200226 | 21 | 356 | 0.0 | 0.0 | 0.00 | 0.00 | 0.00 | 58 | 1013.8 |
| 20260830195209 | 21 | 356 | 0.0 | 0.0 | 0.00 | 0.00 | 0.00 | 56 | 1014.0 |
| 20260830194705 | 21 | 355 | 0.0 | 1.6 | 0.00 | 0.00 | 0.00 | 55 | 1013.7 |
| 20260830194202 | 21 | 355 | 0.0 | 1.6 | 0.00 | 0.00 | 0.00 | 54 | 1013.8 |
| 20260830193656 | 22 | 354 | 0.0 | 1.6 | 0.00 | 0.00 | 0.00 | 53 | 1013.9 |
| 20260830193155 | 22 | 354 | 0.0 | 0.0 | 0.00 | 0.00 | 0.00 | 51 | 1013.8 |
| 20260830192650 | 22 | 354 | 0.0 | 0.0 | 0.00 | 0.00 | 0.00 | 50 | 1013.7 |
| 20260830192137 | 22 | 354 | 0.0 | 0.0 | 0.00 | 0.00 | 0.00 | 49 | 1013.7 |
| 20260830191141 | 23 | 354 | 0.0 | 1.6 | 0.00 | 0.00 | 0.00 | 47 | 1013.6 |
| 20260830190642 | 23 | 354 | 0.0 | 1.6 | 0.00 | 0.00 | 0.00 | 46 | 1013.5 |
| 20260830190137 | 23 | 354 | 0.0 | 1.6 | 0.00 | 0.00 | 0.00 | 44 | 1013.6 |
| 20260830185141 | 24 | 302 | 0.0 | 1.6 | 0.00 | 0.00 | 0.00 | 44 | 1013.4 |
| 20260830184630 | 24 | 301 | 0.0 | 1.6 | 0.00 | 0.00 | 0.00 | 45 | 1013.5 |
| 20260830184129 | 24 | 301 | 0.0 | 1.6 | 0.00 | 0.00 | 0.00 | 44 | 1013.3 |
| 20260830183626 | 25 | 304 | 1.6 | 1.6 | 0.00 | 0.00 | 0.00 | 44 | 1013.1 |
| 20260830183128 | 25 | 304 | 0.0 | 1.6 | 0.00 | 0.00 | 0.00 | 42 | 1013.1 |
| 20260830182625 | 25 | 305 | 0.0 | 1.6 | 0.00 | 0.00 | 0.00 | 42 | 1013.2 |
| 20260830182135 | 25 | 304 | 0.0 | 1.6 | 0.00 | 0.00 | 0.00 | 41 | 1013.0 |
| 20260830181627 | 26 | 305 | 0.0 | 1.6 | 0.00 | 0.00 | 0.00 | 41 | 1012.8 |
| 20260830181125 | 26 | 307 | 0.0 | 1.6 | 0.00 | 0.00 | 0.00 | 39 | 1013.0 |
| 20260830180625 | 27 | 305 | 0.0 | 3.2 | 0.00 | 0.00 | 0.00 | 39 | 1012.7 |
| 20260830180128 | 27 | 305 | 0.0 | 4.8 | 0.00 | 0.00 | 0.00 | 38 | 1012.8 |
| 20260830175125 | 28 | 313 | 3.2 | 4.8 | 0.00 | 0.00 | 0.00 | 33 | 1012.9 |
| 20260830174628 | 29 | 318 | 3.2 | 4.8 | 0.00 | 0.00 | 0.00 | 31 | 1012.7 |
| 20260830174127 | 29 | 314 | 1.6 | 9.7 | 0.00 | 0.00 | 0.00 | 31 | 1012.6 |
| 20260830173629 | 30 | 311 | 1.6 | 9.7 | 0.00 | 0.00 | 0.00 | 30 | 1012.5 |
| 20260830173116 | 30 | 316 | 1.6 | 9.7 | 0.00 | 0.00 | 0.00 | 30 | 1012.5 |
| 20260830172614 | 30 | 313 | 1.6 | 3.2 | 0.00 | 0.00 | 0.00 | 32 | 1012.4 |
| 20260830172116 | 30 | 310 | 1.6 | 4.8 | 0.00 | 0.00 | 0.00 | 32 | 1012.3 |
| 20260830171602 | 30 | 312 | 0.0 | 9.7 | 0.00 | 0.00 | 0.00 | 31 | 1012.2 |
| 20260830171103 | 30 | 319 | 3.2 | 9.7 | 0.00 | 0.00 | 0.00 | 31 | 1012.4 |
| 20260830170601 | 30 | 309 | 1.6 | 9.7 | 0.00 | 0.00 | 0.00 | 31 | 1012.3 |
| 20260830170051 | 30 | 308 | 4.8 | 9.7 | 0.00 | 0.00 | 0.00 | 30 | 1012.3 |
| 20260830164539 | 30 | 336 | 0.0 | 4.8 | 0.00 | 0.00 | 0.00 | 31 | 1012.2 |
| 20260830164046 | 31 | 322 | 0.0 | 6.4 | 0.00 | 0.00 | 0.00 | 31 | 1012.0 |
| 20260830163539 | 31 | 315 | 1.6 | 6.4 | 0.00 | 0.00 | 0.00 | 30 | 1012.1 |
| 20260830163039 | 31 | 335 | 0.0 | 11.3 | 0.00 | 0.00 | 0.00 | 30 | 1011.8 |
| 20260830162040 | 31 | 18 | 1.6 | 9.7 | 0.00 | 0.00 | 0.00 | 29 | 1011.9 |
| 20260830161540 | 31 | 325 | 1.6 | 9.7 | 0.00 | 0.00 | 0.00 | 28 | 1012.1 |
| 20260830161038 | 31 | 310 | 1.6 | 9.7 | 0.00 | 0.00 | 0.00 | 27 | 1011.9 |
| 20260830160540 | 31 | 313 | 0.0 | 9.7 | 0.00 | 0.00 | 0.00 | 28 | 1011.8 |
| 20260830160038 | 31 | 320 | 6.4 | 11.3 | 0.00 | 0.00 | 0.00 | 27 | 1012.1 |
| 20260830155543 | 31 | 303 | 6.4 | 11.3 | 0.00 | 0.00 | 0.00 | 27 | 1012.0 |
| 20260830155040 | 32 | 309 | 3.2 | 9.7 | 0.00 | 0.00 | 0.00 | 28 | 1012.0 |
| 20260830154539 | 32 | 317 | 0.0 | 6.4 | 0.00 | 0.00 | 0.00 | 29 | 1012.0 |
| 20260830154038 | 32 | 299 | 0.0 | 9.7 | 0.00 | 0.00 | 0.00 | 29 | 1012.0 |
| 20260830153541 | 32 | 317 | 4.8 | 9.7 | 0.00 | 0.00 | 0.00 | 27 | 1012.0 |
| 20260830152539 | 32 | 322 | 1.6 | 9.7 | 0.00 | 0.00 | 0.00 | 28 | 1012.0 |
| 20260830152040 | 32 | 327 | 6.4 | 9.7 | 0.00 | 0.00 | 0.00 | 27 | 1012.1 |
| 20260830151544 | 32 | 324 | 6.4 | 9.7 | 0.00 | 0.00 | 0.00 | 27 | 1012.0 |
| 20260830151041 | 32 | 326 | 3.2 | 12.9 | 0.00 | 0.00 | 0.00 | 29 | 1012.1 |
| 20260830150041 | 32 | 315 | 9.7 | 14.5 | 0.00 | 0.00 | 0.00 | 28 | 1012.1 |
| 20260830145548 | 32 | 310 | 3.2 | 14.5 | 0.00 | 0.00 | 0.00 | 28 | 1012.2 |
| 20260830144538 | 32 | 309 | 6.4 | 11.3 | 0.00 | 0.00 | 0.00 | 28 | 1012.3 |
| 20260830143544 | 32 | 306 | 3.2 | 12.9 | 0.00 | 0.00 | 0.00 | 29 | 1012.0 |
| 20260830143041 | 32 | 343 | 0.0 | 12.9 | 0.00 | 0.00 | 0.00 | 30 | 1012.1 |
| 20260830142039 | 32 | 318 | 3.2 | 12.9 | 0.00 | 0.00 | 0.00 | 29 | 1012.3 |
| 20260830141537 | 32 | 316 | 6.4 | 12.9 | 0.00 | 0.00 | 0.00 | 28 | 1012.3 |
| 20260830141027 | 32 | 323 | 3.2 | 12.9 | 0.00 | 0.00 | 0.00 | 29 | 1012.3 |
| 20260830140529 | 32 | 314 | 6.4 | 12.9 | 0.00 | 0.00 | 0.00 | 28 | 1012.3 |
| 20260830140031 | 32 | 318 | 6.4 | 12.9 | 0.00 | 0.00 | 0.00 | 29 | 1012.5 |
| 20260830135531 | 32 | 318 | 4.8 | 16.1 | 0.00 | 0.00 | 0.00 | 28 | 1012.4 |
| 20260830135028 | 32 | 6 | 0.0 | 16.1 | 0.00 | 0.00 | 0.00 | 29 | 1012.5 |
| 20260830134525 | 32 | 309 | 8.0 | 11.3 | 0.00 | 0.00 | 0.00 | 28 | 1012.7 |
| 20260830134029 | 32 | 331 | 4.8 | 9.7 | 0.00 | 0.00 | 0.00 | 28 | 1012.6 |
| 20260830133527 | 32 | 330 | 0.0 | 16.1 | 0.00 | 0.00 | 0.00 | 29 | 1012.8 |
| 20260830133026 | 32 | 307 | 6.4 | 17.7 | 0.00 | 0.00 | 0.00 | 28 | 1012.5 |
| 20260830132026 | 33 | 340 | 0.0 | 14.5 | 0.00 | 0.00 | 0.00 | 27 | 1012.8 |
| 20260830131525 | 34 | 317 | 6.4 | 14.5 | 0.00 | 0.00 | 0.00 | 26 | 1012.7 |
| 20260830131030 | 34 | 304 | 0.0 | 11.3 | 0.00 | 0.00 | 0.00 | 26 | 1012.8 |
| 20260830130530 | 35 | 50 | 1.6 | 11.3 | 0.00 | 0.00 | 0.00 | 27 | 1012.6 |
| 20260830130026 | 35 | 82 | 0.0 | 3.2 | 0.00 | 0.00 | 0.00 | 25 | 1012.9 |
| 20260830125530 | 35 | 120 | 0.0 | 3.2 | 0.00 | 0.00 | 0.00 | 25 | 1012.8 |
| 20260830125026 | 35 | 78 | 0.0 | 3.2 | 0.00 | 0.00 | 0.00 | 27 | 1012.9 |
| 20260830124535 | 35 | 254 | 0.0 | 1.6 | 0.00 | 0.00 | 0.00 | 27 | 1012.8 |
| 20260830124031 | 34 | 244 | 0.0 | 3.2 | 0.00 | 0.00 | 0.00 | 26 | 1012.9 |
| 20260830123529 | 34 | 224 | 1.6 | 3.2 | 0.00 | 0.00 | 0.00 | 27 | 1013.0 |
| 20260830123028 | 33 | 260 | 0.0 | 4.8 | 0.00 | 0.00 | 0.00 | 27 | 1013.0 |
| 20260830122531 | 34 | 357 | 1.6 | 4.8 | 0.00 | 0.00 | 0.00 | 27 | 1012.9 |
| 20260830122029 | 34 | 3 | 0.0 | 3.2 | 0.00 | 0.00 | 0.00 | 30 | 1013.0 |
| 20260830121529 | 34 | 304 | 0.0 | 3.2 | 0.00 | 0.00 | 0.00 | 28 | 1013.2 |
| 20260830120525 | 34 | 199 | 0.0 | 1.6 | 0.00 | 0.00 | 0.00 | 27 | 1013.2 |
| 20260830115528 | 34 | 252 | 0.0 | 1.6 | 0.00 | 0.00 | 0.00 | 27 | 1013.3 |
| 20260830115026 | 33 | 313 | 0.0 | 3.2 | 0.00 | 0.00 | 0.00 | 29 | 1012.9 |
| 20260830114028 | 34 | 190 | 0.0 | 1.6 | 0.00 | 0.00 | 0.00 | 27 | 1013.2 |
| 20260830113526 | 33 | 203 | 0.0 | 1.6 | 0.00 | 0.00 | 0.00 | 31 | 1013.2 |
| 20260830113026 | 33 | 199 | 0.0 | 1.6 | 0.00 | 0.00 | 0.00 | 31 | 1013.4 |
| 20260830112531 | 32 | 0 | 0.0 | 6.4 | 0.00 | 0.00 | 0.00 | 30 | 1013.3 |
| 20260830112033 | 32 | 314 | 1.6 | 6.4 | 0.00 | 0.00 | 0.00 | 30 | 1013.2 |
| 20260830111030 | 33 | 223 | 1.6 | 3.2 | 0.00 | 0.00 | 0.00 | 28 | 1013.0 |
| 20260830110530 | 33 | 197 | 1.6 | 3.2 | 0.00 | 0.00 | 0.00 | 27 | 1013.5 |
| 20260830110035 | 32 | 252 | 0.0 | 4.8 | 0.00 | 0.00 | 0.00 | 28 | 1013.4 |
| 20260830105532 | 32 | 311 | 0.0 | 4.8 | 0.00 | 0.00 | 0.00 | 30 | 1013.3 |
| 20260830104529 | 32 | 305 | 0.0 | 9.7 | 0.00 | 0.00 | 0.00 | 32 | 1013.5 |
| 20260830104030 | 32 | 353 | 0.0 | 3.2 | 0.00 | 0.00 | 0.00 | 30 | 1013.4 |
| 20260830103529 | 32 | 219 | 0.0 | 4.8 | 0.00 | 0.00 | 0.00 | 31 | 1013.7 |
| 20260830103029 | 32 | 251 | 0.0 | 4.8 | 0.00 | 0.00 | 0.00 | 30 | 1013.6 |
| 20260830102532 | 32 | 312 | 1.6 | 9.7 | 0.00 | 0.00 | 0.00 | 32 | 1013.6 |
| 20260830102030 | 32 | 310 | 0.0 | 9.7 | 0.00 | 0.00 | 0.00 | 31 | 1013.5 |
| 20260830101516 | 32 | 302 | 0.0 | 6.4 | 0.00 | 0.00 | 0.00 | 34 | 1013.6 |
| 20260830101014 | 31 | 305 | 0.0 | 6.4 | 0.00 | 0.00 | 0.00 | 35 | 1013.7 |
| 20260830100514 | 31 | 310 | 3.2 | 4.8 | 0.00 | 0.00 | 0.00 | 33 | 1013.8 |
| 20260830100002 | 31 | 311 | 0.0 | 4.8 | 0.00 | 0.00 | 0.00 | 37 | 1013.9 |
| 20260830095502 | 31 | 299 | 0.0 | 3.2 | 0.00 | 0.00 | 0.00 | 34 | 1014.0 |
| 20260830095004 | 31 | 173 | 0.0 | 0.0 | 0.00 | 0.00 | 0.00 | 36 | 1014.0 |
| 20260830094457 | 31 | 173 | 0.0 | 0.0 | 0.00 | 0.00 | 0.00 | 35 | 1014.2 |
| 20260830093952 | 31 | 174 | 0.0 | 1.6 | 0.00 | 0.00 | 0.00 | 39 | 1014.2 |
| 20260830093453 | 31 | 174 | 0.0 | 1.6 | 0.00 | 0.00 | 0.00 | 40 | 1014.3 |
| 20260830092945 | 31 | 177 | 0.0 | 1.6 | 0.00 | 0.00 | 0.00 | 36 | 1014.2 |
| 20260830092441 | 30 | 149 | 0.0 | 1.6 | 0.00 | 0.00 | 0.00 | 41 | 1014.3 |
| 20260830091950 | 30 | 127 | 0.0 | 1.6 | 0.00 | 0.00 | 0.00 | 38 | 1014.3 |
| 20260830091443 | 29 | 126 | 0.0 | 1.6 | 0.00 | 0.00 | 0.00 | 40 | 1014.3 |
| 20260830090944 | 29 | 126 | 0.0 | 1.6 | 0.00 | 0.00 | 0.00 | 43 | 1014.2 |
| 20260830090440 | 29 | 127 | 0.0 | 1.6 | 0.00 | 0.00 | 0.00 | 43 | 1014.5 |
| 20260830085944 | 28 | 127 | 0.0 | 1.6 | 0.00 | 0.00 | 0.00 | 43 | 1014.4 |
| 20260830084943 | 27 | 109 | 0.0 | 1.6 | 0.00 | 0.00 | 0.00 | 46 | 1014.5 |
| 20260830084443 | 28 | 33 | 0.0 | 0.0 | 0.00 | 0.00 | 0.00 | 43 | 1014.5 |
| 20260830083943 | 27 | 21 | 0.0 | 0.0 | 0.00 | 0.00 | 0.00 | 45 | 1014.5 |
| 20260830083431 | 27 | 20 | 0.0 | 0.0 | 0.00 | 0.00 | 0.00 | 48 | 1014.6 |
| 20260830082931 | 27 | 0 | 0.0 | 0.0 | 0.00 | 0.00 | 0.00 | 52 | 1014.6 |
| 20260830082428 | 26 | 0 | 0.0 | 1.6 | 0.00 | 0.00 | 0.00 | 55 | 1014.6 |
| 20260830081934 | 26 | 0 | 0.0 | 1.6 | 0.00 | 0.00 | 0.00 | 51 | 1014.7 |
| 20260830081426 | 26 | 316 | 0.0 | 0.0 | 0.00 | 0.00 | 0.00 | 55 | 1014.7 |
| 20260830080928 | 26 | 315 | 0.0 | 0.0 | 0.00 | 0.00 | 0.00 | 53 | 1014.7 |
| 20260830080427 | 25 | 316 | 0.0 | 0.0 | 0.00 | 0.00 | 0.00 | 52 | 1014.7 |
| 20260830075932 | 25 | 316 | 0.0 | 0.0 | 0.00 | 0.00 | 0.00 | 54 | 1014.6 |
| 20260830075430 | 25 | 316 | 0.0 | 0.0 | 0.00 | 0.00 | 0.00 | 57 | 1014.7 |
| 20260830074428 | 24 | 315 | 0.0 | 0.0 | 0.00 | 0.00 | 0.00 | 58 | 1014.7 |
| 20260830073928 | 23 | 315 | 0.0 | 0.0 | 0.00 | 0.00 | 0.00 | 61 | 1014.5 |
| 20260830073427 | 23 | 315 | 0.0 | 0.0 | 0.00 | 0.00 | 0.00 | 58 | 1014.7 |
| 20260830072933 | 23 | 315 | 0.0 | 0.0 | 0.00 | 0.00 | 0.00 | 56 | 1014.7 |